Pasco, WA
on Monday, November 26, 2012

Monday
Previous Day Next Day
Daily Summary
 ActualAverageRecord
Temperature
Mean Temperature °F 38°F  
Max Temperature 36°F 45°F 64°F (1998)
Min Temperature 22°F 30°F 2°F (1993)
Degree Days
Heating Degree Days 36 27  
Month to date heating degree days 535 597  
Since 1 July heating degree days 979 1115  
Cooling Degree Days 0 0  
Month to date cooling degree days 0 0  
Year to date cooling degree days 788 710  
Moisture
Dew Point 28°F   
Average Humidity 91    
Maximum Humidity 100    
Minimum Humidity 82    
Precipitation
Precipitation 0.00 in in 0.51 in (1955)
Month to date precipitation 1.03  
Year to date precipitation 8.49  
Snow
Snow 0.00 in in in ()
Snow Depth 0.00 in   
Wind
Wind Speed 2 mph   
Max Wind Speed 9 mph   
Max Gust Speed 10 mph   
Visibility 10 miles   
Events     

Key: T is trace of precipitation, MM is missing value
Source: NWS Daily Summary
Time(PST)TemperatureDew PointHumidity Pressure Visibility Wind DirectionWind SpeedGust SpeedPrecipitationEvents Conditions
12:53 AM 26.1°F 24.1°F 92% 30.37 in 10.0 miles Calm Calm - N/A   Clear
1:53 AM 25.0°F 23.0°F 92% 30.38 in 10.0 miles NNW 3.5 mph - N/A   Clear
2:53 AM 25.0°F 23.0°F 92% 30.37 in 10.0 miles Calm Calm - N/A   Clear
3:53 AM 27.0°F 24.1°F 89% 30.35 in 10.0 miles Calm Calm - N/A   Clear
4:53 AM 25.0°F 23.0°F 92% 30.33 in 10.0 miles East 3.5 mph - N/A   Clear
5:53 AM 24.1°F 21.9°F 91% 30.34 in 10.0 miles Calm Calm - N/A   Clear
6:39 AM 24.8°F 24.8°F 100% 30.32 in 10.0 miles Calm Calm - N/A   Overcast
6:53 AM 27.0°F 25.0°F 92% 30.33 in 10.0 miles East 3.5 mph - N/A   Overcast
7:53 AM 28.0°F 27.0°F 96% 30.33 in 10.0 miles Calm Calm - N/A   Overcast
8:53 AM 30.0°F 28.0°F 92% 30.34 in 10.0 miles Calm Calm - N/A   Overcast
9:53 AM 32.0°F 28.9°F 88% 30.34 in 10.0 miles North 3.5 mph - N/A   Overcast
10:53 AM 33.1°F 30.0°F 89% 30.33 in 10.0 miles Calm Calm - N/A   Overcast
11:53 AM 33.1°F 28.9°F 85% 30.31 in 10.0 miles Calm Calm - N/A   Overcast
12:53 PM 35.1°F 30.0°F 82% 30.29 in 10.0 miles Calm Calm - N/A   Overcast
1:53 PM 35.1°F 30.9°F 85% 30.27 in 10.0 miles Calm Calm - N/A   Overcast
2:53 PM 36.0°F 30.9°F 82% 30.27 in 10.0 miles ESE 3.5 mph - N/A   Overcast
3:53 PM 35.1°F 30.9°F 85% 30.27 in 10.0 miles SE 5.8 mph - N/A   Overcast
4:53 PM 33.1°F 30.0°F 89% 30.27 in 10.0 miles ESE 5.8 mph - N/A   Overcast
5:45 PM 32.0°F 28.4°F 87% 30.26 in 10.0 miles East 5.8 mph - N/A   Mostly Cloudy
5:53 PM 32.0°F 28.9°F 88% 30.28 in 10.0 miles East 4.6 mph - N/A   Mostly Cloudy
6:00 PM 30.2°F 28.4°F 93% 30.26 in 10.0 miles East 3.5 mph - N/A   Mostly Cloudy
6:53 PM 30.0°F 28.0°F 92% 30.28 in 10.0 miles East 4.6 mph - N/A   Mostly Cloudy
7:53 PM 28.9°F 28.0°F 96% 30.29 in 5.0 miles Calm Calm - N/A   Mostly Cloudy
8:53 PM 30.9°F 28.9°F 92% 30.29 in 9.0 miles East 3.5 mph - N/A   Overcast
9:53 PM 30.9°F 30.0°F 96% 30.30 in 10.0 miles SE 3.5 mph - N/A   Overcast
10:53 PM 32.0°F 30.0°F 92% 30.30 in 8.0 miles ESE 3.5 mph - N/A   Overcast
11:53 PM 32.0°F 30.0°F 92% 30.30 in 8.0 miles East 5.8 mph - N/A   Overcast
Moon Phase
Nov. 26 Nov. 28 Dec. 06 Dec. 13 Dec. 20
Sunrise:07:13 AM (PST) Moon Rise:03:12 PM (PST)11/26
Sunset:04:14 PM (PST) Moon Set:05:24 AM (PST)11/26

Copyright © 2014 The Weather Underground, Inc.